Location: LewisvilleTX
(33.0462°N, 96.9942°W)
Time: 21:07:53
(UTC+00:00)

Envisat - Pass Details

Date: 29 September 2020
Orbit: 764 x 766 km, 98.1° (Epoch: 26 October)

Event Time Altitude Azimuth Distance (km) Brightness Sun altitude
Rises 11:05:14 0° 40° (NE) 3,232 7.0 -16.7°
Reaches altitude 10° 11:09:21 10° 73° (ENE) 2,300 6.8 -15.9°
Maximum altitude 11:10:59 11° 92° (E) 2,196 6.7 -15.5°
Drops below altitude 10° 11:12:37 10° 111° (ESE) 2,295 6.5 -15.2°
Sets 11:16:42 0° 144° (SE) 3,214 6.7 -14.3°
